DateTimeUTC,F1_A11,F1_S11,BsB_S11,BsG_S11,BsR_S11,BbsB_S11,BbsG_S11,BbsR_S11,BaB_A11,BaG_A11,BaR_A11,Tu_S11,T_S11,Uu_S11,U_S11,P_S11,T1_A11
2021-11-20T20:00:00Z,00000200,21000000,,,,,,,0000.11,0000.34,0000.37,19.0,25.5,,00.0,0632.3,30.9
2021-11-20T20:01:00Z,00000200,21000000,,,,,,,-000.11,-000.31,-000.23,19.0,25.6,,00.0,0632.3,30.9
2021-11-20T20:02:00Z,00000200,21000000,,,,,,,-000.06,0000.02,-000.02,18.9,25.5,,00.0,0632.3,30.8
2021-11-20T20:03:00Z,00000200,61000000,,,,,,,0000.37,0000.09,0000.13,18.9,25.5,,00.0,0632.3,30.8
2021-11-20T20:04:00Z,00000200,41000000,0000.25,0000.10,0000.13,0000.46,-000.33,-000.06,0000.27,0000.70,0000.44,18.9,25.3,,00.0,0633.0,30.8
2021-11-20T20:05:00Z,00000200,01000000,-000.26,0000.04,0000.46,0000.53,0000.08,0000.65,0000.22,-000.02,-000.02,18.9,25.3,,00.0,0633.0,30.8
2021-11-20T20:06:00Z,00000200,01000000,0000.60,0000.26,-000.02,0000.63,-000.02,0000.24,0000.19,0000.25,0000.11,19.0,25.3,,00.0,0633.0,30.8
2021-11-20T20:07:00Z,00000200,01000000,0000.16,0000.07,0000.49,-000.05,-000.02,0000.13,0000.04,-000.01,0000.26,19.0,25.3,,00.0,0633.0,30.8
2021-11-20T20:08:00Z,00000200,01000000,0000.44,0000.14,-000.09,-000.08,-000.09,0000.18,0000.36,0000.11,-000.02,19.1,25.3,,00.0,0633.0,30.9
2021-11-20T20:09:00Z,00000200,01000000,-000.03,0000.14,0000.01,0000.69,-000.09,-000.17,-000.20,0000.09,0000.01,19.2,25.4,,00.0,0633.0,30.9
2021-11-20T20:10:00Z,00000200,01000000,0000.32,-000.05,0000.22,0000.79,-000.32,0000.02,0000.14,0000.20,0000.45,19.2,25.4,,00.0,0633.0,30.9
2021-11-20T20:11:00Z,00000200,01000000,-000.12,-000.18,0000.17,-000.31,0000.09,0000.12,0000.39,0000.10,-000.23,19.3,25.4,,00.0,0633.0,30.9
2021-11-20T20:12:00Z,00000200,01000000,0000.40,-000.20,-000.15,-000.73,-000.05,0000.20,-000.32,0000.05,0000.30,19.3,25.4,,00.0,0633.0,30.9
2021-11-20T20:13:00Z,00000200,01000000,0000.40,0000.19,0000.19,-000.14,0000.04,0000.29,0000.38,0000.20,-000.00,19.3,25.5,,00.0,0632.9,30.9
2021-11-20T20:14:00Z,00000200,01000000,0000.71,0000.06,0000.06,0000.01,-000.27,-000.11,-000.14,-000.04,-000.06,19.3,25.5,,00.0,0632.9,30.9
2021-11-20T20:15:00Z,00000200,01000000,-000.14,-000.12,0000.17,0000.32,0000.20,0000.20,-000.07,-000.16,-000.16,19.2,25.4,,00.0,0632.8,30.9
2021-11-20T20:16:00Z,00000200,01000000,0000.50,0000.07,0000.14,0000.44,0000.09,0000.21,0000.42,0000.15,0000.09,19.1,25.4,,00.0,0632.8,30.9
2021-11-20T20:17:00Z,00000200,01000000,0000.77,0000.10,0000.13,-000.13,0000.17,0000.25,0000.07,-000.08,-000.22,19.1,25.3,,00.0,0632.9,30.8
2021-11-20T20:18:00Z,00000200,01000000,-000.11,0000.05,0000.17,0000.06,0000.18,0000.35,0000.18,0000.23,0000.54,19.0,25.3,,00.0,0632.8,30.8
2021-11-20T20:19:00Z,00000200,01000000,-000.24,0000.02,-000.02,0000.51,0000.35,0000.21,0000.24,0000.45,-000.02,19.0,25.3,,00.0,0632.8,30.8
2021-11-20T20:20:00Z,00000200,01000000,0000.63,0000.15,0000.20,0000.47,-000.01,0000.36,0000.27,0000.09,0000.04,19.0,25.2,,00.0,0632.8,30.8
2021-11-20T20:21:00Z,00000200,01000000,0000.92,0000.10,0000.50,0000.09,0000.09,0000.27,0000.07,-000.03,0000.23,19.0,25.3,,00.0,0632.7,30.8
2021-11-20T20:22:00Z,00000200,01000000,0000.29,0000.27,-000.08,0000.30,0000.05,0000.16,0000.10,0000.32,0000.31,19.0,25.3,,00.0,0632.8,30.8
2021-11-20T20:23:00Z,00000200,01000000,0000.05,-000.05,0000.07,0000.48,0000.16,0000.29,0000.27,0000.35,0000.09,19.1,25.3,,00.0,0632.8,30.8
2021-11-20T20:24:00Z,00000200,01000000,0000.45,0000.05,-000.05,0000.19,-000.01,0000.07,0000.37,0000.42,-000.03,19.1,25.3,,00.0,0632.7,30.8
2021-11-20T20:25:00Z,00000200,01000000,-000.08,0000.24,0000.07,0000.27,-000.19,0000.09,-000.16,-000.33,0000.33,19.2,25.4,,00.0,0632.8,30.9
2021-11-20T20:26:00Z,00000200,01000000,0000.66,0000.17,-000.16,0000.46,-000.04,-000.16,0000.01,0000.09,0000.08,19.3,25.4,,00.0,0632.8,30.9
2021-11-20T20:27:00Z,00000200,01000000,0000.22,0000.34,0000.09,-000.31,0000.09,0000.31,0000.25,-000.07,-000.02,19.3,25.4,,00.0,0632.7,30.9
2021-11-20T20:28:00Z,00000200,01000000,0000.12,-000.09,0000.33,0000.39,0000.19,0000.38,-000.14,0000.05,-000.19,19.3,25.4,,00.0,0632.6,30.9
2021-11-20T20:29:00Z,00000200,01000000,-000.38,-000.02,-000.07,0000.35,0000.49,0000.00,0000.33,0000.10,0000.43,19.2,25.4,,00.0,0632.6,30.8
2021-11-20T20:30:00Z,00000200,01000000,0000.49,0000.00,0000.38,0000.15,0000.26,0000.55,-000.00,0000.25,-000.25,19.1,25.4,,00.0,0632.6,30.8
2021-11-20T20:31:00Z,00000200,01000000,0001.03,-000.06,0000.31,0000.77,0000.09,0000.54,-000.21,-000.00,0000.05,19.0,25.3,,00.0,0632.5,30.8
2021-11-20T20:32:00Z,00000200,01000000,0000.85,0000.14,-000.02,-000.09,0000.44,0000.22,0000.04,0000.04,-000.10,18.9,25.3,,00.0,0632.5,30.8
2021-11-20T20:33:00Z,00000200,01000000,0000.23,0000.16,0000.19,-000.07,0000.20,0000.60,0000.22,0000.29,0000.32,18.9,25.2,,00.0,0632.5,30.8
2021-11-20T20:34:00Z,00000200,01000000,0000.48,0000.43,-000.13,0000.71,-000.32,-000.03,0000.36,0000.03,-000.02,18.9,25.2,,00.0,0632.5,30.8
2021-11-20T20:35:00Z,00000200,01000000,0000.45,-000.22,-000.08,0000.10,-000.03,0000.00,0000.22,0000.18,0000.32,18.9,25.2,,00.0,0632.5,30.8
2021-11-20T20:36:00Z,00000200,01000000,0000.17,0000.02,0000.19,0000.86,-000.05,0000.48,0000.10,0000.04,-000.04,18.9,25.2,,00.0,0632.5,30.8
2021-11-20T20:37:00Z,00000200,01000000,0001.06,0000.20,0000.01,0001.09,-000.04,0000.13,0000.02,-000.14,0000.28,19.0,25.2,,00.0,0632.4,30.9
2021-11-20T20:38:00Z,00000200,01000000,0000.43,-000.01,0000.50,0000.02,0000.06,0000.39,0000.21,0000.69,-000.00,19.0,25.3,,00.0,0632.4,30.9
2021-11-20T20:39:00Z,00000200,01000000,0001.08,0000.10,-000.18,-000.11,0000.03,-000.19,0000.17,-000.25,0000.25,19.1,25.3,,00.0,0632.4,30.9
2021-11-20T20:40:00Z,00000200,01000000,0000.17,0000.19,-000.13,0000.99,0000.02,-000.00,0000.05,0000.07,-000.02,19.1,25.3,,00.0,0632.4,30.9
2021-11-20T20:41:00Z,00000200,01000000,-000.26,0000.02,0000.07,0000.48,-000.13,-000.12,-000.09,-000.07,0000.02,19.1,25.3,,00.0,0632.3,30.9
2021-11-20T20:42:00Z,00000200,01000000,0000.37,-000.01,-000.30,0000.43,0000.10,-000.12,0000.02,0000.20,-000.02,19.1,25.4,,00.0,0632.4,30.9
2021-11-20T20:43:00Z,00000200,01000000,0000.13,0000.53,0000.09,0000.21,-000.17,0000.03,0000.10,0000.30,0000.01,19.0,25.3,,00.0,0632.3,30.8
2021-11-20T20:44:00Z,00000200,01000000,0000.03,-000.11,-000.27,0000.16,0000.19,0000.01,-000.24,-000.47,-000.01,18.9,25.3,,00.0,0632.4,30.8
2021-11-20T20:45:00Z,00000200,01000000,-000.25,-000.03,0000.38,-000.32,0000.24,0000.27,0000.36,-000.02,-000.11,18.9,25.2,,00.0,0632.3,30.8
2021-11-20T20:46:00Z,00000200,01000000,-000.22,0000.12,0000.13,0000.40,-000.12,-000.10,-000.01,0000.51,0000.47,18.8,25.2,,00.0,0632.4,30.8
2021-11-20T20:47:00Z,00000200,01000000,0000.32,0000.12,-000.07,0000.67,-000.06,0000.29,-000.08,-000.42,-000.48,18.7,25.1,,00.0,0632.3,30.8
2021-11-20T20:48:00Z,00000200,01000000,0000.59,0000.27,0000.25,0000.50,-000.07,0000.19,0000.37,0000.52,0000.32,18.7,25.1,,00.0,0632.3,30.8
2021-11-20T20:49:00Z,00000200,01000000,0000.42,0000.13,0000.09,0000.34,0000.12,-000.22,0000.41,0000.17,-000.10,18.6,25.1,,00.0,0632.3,30.8
2021-11-20T20:50:00Z,00000200,01000000,-000.13,0000.10,0000.18,0000.86,-000.00,0000.17,-000.13,-000.11,0000.32,18.7,25.1,,00.0,0632.3,30.8
2021-11-20T20:51:00Z,00000200,01000000,-000.02,-000.06,0000.05,0000.05,-000.36,0000.00,0000.07,0000.46,-000.14,18.7,25.1,,00.0,0632.4,30.8
2021-11-20T20:52:00Z,00000200,01000000,-000.13,0000.30,0000.03,0000.87,0000.12,-000.04,0000.07,0000.24,0000.49,18.8,25.1,,00.0,0632.3,30.8
2021-11-20T20:53:00Z,00000200,01000000,0001.17,-000.04,-000.13,0000.28,-000.14,-000.01,-000.06,-000.41,-000.05,18.8,25.1,,00.0,0632.4,30.8
2021-11-20T20:54:00Z,00000200,01000000,-000.36,0000.39,-000.19,0000.39,0000.18,-000.29,0000.46,0000.15,-000.03,18.9,25.1,,00.0,0632.4,30.8
2021-11-20T20:55:00Z,00000200,01000000,0000.67,0000.30,0000.28,0000.54,0000.20,0000.01,-000.02,0000.04,0000.42,18.9,25.2,,00.0,0632.4,30.8
2021-11-20T20:56:00Z,00000200,01000000,0000.38,-000.05,-000.15,0000.45,0000.30,0000.01,0000.09,0000.10,-000.26,19.0,25.2,,00.0,0632.4,30.9
2021-11-20T20:57:00Z,00000200,41000000,,,,,,,-000.05,-000.20,-000.13,19.0,25.2,,00.0,0632.4,30.9
2021-11-20T20:58:00Z,00000200,61000000,,,,,,,-000.22,0000.19,-000.02,18.7,25.3,,00.0,0631.5,30.8
2021-11-20T20:59:00Z,00000200,21000000,,,,,,,-000.31,-000.32,-000.35,18.6,25.4,,00.0,0631.4,30.8
